User: anonymous
Location: Churchill
(58.7670°N, 94.1670°W)
Time: 17:10:49
(UTC-05:00)
Language:

Cosmos 2142 Rocket - Orbit

View from above orbital plane
View from above orbital plane
View from above satellite
View from above satellite

Ground track
Ground track

The orbit data is extracted from the following two-line orbital elements,

1 21231U 91029B   14203.55705404  .00000017  00000-0  18948-5 0  5326
2 21231 082.9529 174.2503 0033831 313.8880 184.1373 13.75626242167950
Epoch (UTC): 22 July 2014 13:22:09
Eccentricity: 0.0033831
inclination: 82.9529°
perigee height: 954 km
apogee height: 1004 km
right ascension of ascending node: 174.2503°
argument of perigee: 313.8880°
revolutions per day: 13.75626242
mean anomaly at epoch: 184.1373°
orbit number at epoch: 16795

The dashed part of the orbit path shows where the satellite is in the earth's shadow,  

DLR